Volver al catálogo

TIMATION 1

ActivoNavegaciónLEO
NORAD 2847·PAYLOAD·🇺🇸 United States

Lanzado May 31, 1967 desde Vandenberg Space Force Base

Loading…

Próximos Pases (próximas 24 horas)

TLE

ActualizadoSource: Space-Track

Época: Sep 14, 2026, 14:46 UTC

1 02847U 67053E   26257.61590003  .00000039  00000-0  59757-4 0  9997
2 02847  69.9674  13.4498 0008938 298.1513  61.8692 14.03010104 26330

Sigue TIMATION 1 en tiempo real con AllMySat

Download on the App Store